カタログに戻る

JILIN-1 GAOFEN 03D-08

運用中科学PO
NORAD 54251·PAYLOAD·🇨🇳 China
この衛星名は、まだ公式ソースで確認されていません。

打ち上げ Nov 16, 2022 から Jiuquan Satellite Launch Center

Loading…

次のパス (今後24時間)

TLE

最新Source: Space-Track

元期: Sep 14, 2026, 14:25 UTC

1 54251U 22155A   26257.60109438  .00083505  00000-0  54047-3 0  9999
2 54251  97.6320  50.9727 0002102   5.1950 354.9336 15.75810947213849

AllMySatでJILIN-1 GAOFEN 03D-08をリアルタイム追跡

Download on the App Store